TimeEST,TemperatureF,Dew PointF,Humidity,Sea Level PressureIn,VisibilityMPH,Wind Direction,Wind SpeedMPH,Gust SpeedMPH,PrecipitationIn,Events,Conditions,WindDirDegrees,DateUTC
12:53 AM,39.0,30.9,73,30.10,10.0,Calm,Calm,-,N/A,,Clear,0,2013-11-12 05:53:00
1:53 AM,44.1,27.0,51,30.06,10.0,Calm,Calm,-,N/A,,Scattered Clouds,0,2013-11-12 06:53:00
2:53 AM,41.0,30.0,65,30.06,10.0,NW,3.5,-,N/A,,Partly Cloudy,320,2013-11-12 07:53:00
3:53 AM,41.0,28.9,62,30.04,10.0,Calm,Calm,-,N/A,,Clear,0,2013-11-12 08:53:00
4:53 AM,41.0,30.9,67,30.03,10.0,Calm,Calm,-,N/A,,Clear,0,2013-11-12 09:53:00
5:53 AM,41.0,28.9,62,30.03,10.0,Calm,Calm,-,N/A,,Clear,0,2013-11-12 10:53:00
6:53 AM,44.1,30.0,58,30.03,10.0,Calm,Calm,-,N/A,,Overcast,0,2013-11-12 11:53:00
7:53 AM,46.0,28.9,51,30.04,10.0,WNW,5.8,-,N/A,,Partly Cloudy,290,2013-11-12 12:53:00
8:53 AM,54.0,28.9,38,30.05,10.0,WNW,4.6,-,N/A,,Partly Cloudy,300,2013-11-12 13:53:00
9:53 AM,60.1,30.0,32,30.06,10.0,NNE,4.6,-,N/A,,Clear,20,2013-11-12 14:53:00
10:53 AM,62.1,28.9,29,30.07,10.0,NNW,11.5,17.3,N/A,,Clear,330,2013-11-12 15:53:00
11:53 AM,61.0,33.1,35,30.07,10.0,NW,11.5,21.9,N/A,,Mostly Cloudy,320,2013-11-12 16:53:00
12:53 PM,53.1,33.1,47,30.10,10.0,NNW,12.7,23.0,N/A,,Overcast,330,2013-11-12 17:53:00
1:53 PM,50.0,28.0,43,30.13,10.0,NNW,16.1,25.3,N/A,,Overcast,340,2013-11-12 18:53:00
2:53 PM,48.0,28.0,46,30.16,10.0,North,11.5,19.6,N/A,,Overcast,360,2013-11-12 19:53:00
3:53 PM,43.0,24.1,47,30.20,10.0,North,10.4,21.9,N/A,,Overcast,360,2013-11-12 20:53:00
4:53 PM,41.0,21.9,47,30.25,10.0,NNW,12.7,24.2,N/A,,Overcast,340,2013-11-12 21:53:00
5:53 PM,37.9,21.0,51,30.29,10.0,North,16.1,20.7,N/A,,Mostly Cloudy,350,2013-11-12 22:53:00
6:53 PM,36.0,16.0,44,30.33,10.0,NNW,9.2,20.7,N/A,,Clear,340,2013-11-12 23:53:00
7:53 PM,34.0,14.0,44,30.35,10.0,North,16.1,24.2,N/A,,Clear,350,2013-11-13 00:53:00
8:53 PM,32.0,12.9,45,30.40,10.0,North,13.8,20.7,N/A,,Clear,360,2013-11-13 01:53:00
9:53 PM,30.9,10.9,43,30.41,10.0,North,8.1,-,N/A,,Clear,360,2013-11-13 02:53:00
10:53 PM,30.0,12.0,47,30.43,10.0,North,4.6,-,N/A,,Clear,360,2013-11-13 03:53:00
11:53 PM,30.0,12.0,47,30.43,10.0,North,6.9,-,N/A,,Clear,350,2013-11-13 04:53:00